BAW17PA EGKK-TAPA

Flight info

Callsign BAW17PA
Flight time N/A
Altitude 36000
Route IMVUR N63 SAM N19 ADKIK DCT JOZMA DCT LULOX/M083F360 DCT SOMAX DCT 4930N02000W 4830N03000W 44N040W/M083F380 39N045W 33N050W 27N055W 20N060W DCT AMTTO DCT ANU DCT
Aircraft B772/H-SDE1E3FGHIJ3J5J6M1M2P2RWXYZ/LB1D1

Departure

Time N/A
Airport London Gatwick Airport (EGKK)

Arrival

Time 2026-04-21 17:09
Airport V. C. Bird International Airport (TAPA)
Time Latitude Longitude Altitude Speed Heading
2026-04-21 12:48 45.04400 -37.97645 36455 ft 506 kts 243°
2026-04-21 12:48 45.02353 -38.01747 36715 ft 504 kts 243°
2026-04-21 12:48 45.00362 -38.05734 36898 ft 504 kts 243°
2026-04-21 12:48 44.98340 -38.09781 37041 ft 504 kts 242°
2026-04-21 12:49 44.96315 -38.13829 37163 ft 505 kts 242°
2026-04-21 12:49 44.94289 -38.17873 37334 ft 505 kts 242°
2026-04-21 12:49 44.92260 -38.21917 37456 ft 504 kts 242°
2026-04-21 12:49 44.90239 -38.25935 37774 ft 500 kts 242°
2026-04-21 12:50 44.88226 -38.29930 37964 ft 500 kts 242°
2026-04-21 12:50 44.84220 -38.37876 38090 ft 502 kts 242°
2026-04-21 12:51 44.80162 -38.45906 38101 ft 504 kts 241°
2026-04-21 12:51 44.76083 -38.53949 38106 ft 505 kts 241°
2026-04-21 12:52 44.71994 -38.61986 38114 ft 505 kts 241°
2026-04-21 12:52 44.67928 -38.69956 38120 ft 505 kts 241°
2026-04-21 12:53 44.63836 -38.77954 38101 ft 503 kts 240°
2026-04-21 12:53 44.59750 -38.85921 38114 ft 502 kts 240°
2026-04-21 12:54 44.55662 -38.93871 38109 ft 502 kts 240°
2026-04-21 12:54 44.51603 -39.01743 38077 ft 501 kts 240°
2026-04-21 12:55 44.47519 -39.09640 38110 ft 500 kts 239°
2026-04-21 12:55 44.43433 -39.17520 38116 ft 500 kts 239°
2026-04-21 12:56 44.39339 -39.25396 38128 ft 501 kts 239°
2026-04-21 12:56 44.35256 -39.33230 38103 ft 502 kts 239°
2026-04-21 12:57 44.31136 -39.41110 38106 ft 502 kts 239°
2026-04-21 12:57 44.27018 -39.48963 38111 ft 501 kts 239°
2026-04-21 12:58 44.22903 -39.56793 38115 ft 499 kts 238°
2026-04-21 12:58 44.18791 -39.64599 38099 ft 500 kts 238°
2026-04-21 12:59 44.14694 -39.72353 38100 ft 501 kts 238°
2026-04-21 12:59 44.10562 -39.80152 38080 ft 500 kts 238°
2026-04-21 13:00 44.06432 -39.87929 38096 ft 500 kts 238°
2026-04-21 13:00 44.02295 -39.95689 38107 ft 500 kts 237°
2026-04-21 13:01 43.97583 -40.02787 38115 ft 508 kts 225°
2026-04-21 13:01 43.92041 -40.08931 38095 ft 510 kts 222°
2026-04-21 13:02 43.86437 -40.14987 38103 ft 511 kts 222°
2026-04-21 13:02 43.78056 -40.24128 38096 ft 512 kts 223°
2026-04-21 13:03 43.72508 -40.30204 38101 ft 512 kts 223°
2026-04-21 13:03 43.66923 -40.36309 38101 ft 512 kts 223°
2026-04-21 13:04 43.61319 -40.42416 38089 ft 515 kts 223°
2026-04-21 13:04 43.55679 -40.48544 38079 ft 517 kts 223°
2026-04-21 13:05 43.50080 -40.54610 38098 ft 514 kts 222°
2026-04-21 13:05 43.44467 -40.60675 38060 ft 511 kts 223°
2026-04-21 13:06 43.38883 -40.66697 38090 ft 509 kts 223°
2026-04-21 13:06 43.33307 -40.72698 38090 ft 509 kts 223°
2026-04-21 13:07 43.27766 -40.78647 38067 ft 509 kts 223°
2026-04-21 13:07 43.22182 -40.84629 38086 ft 510 kts 223°
2026-04-21 13:08 43.16578 -40.90616 38098 ft 512 kts 223°
2026-04-21 13:08 43.10955 -40.96610 38075 ft 513 kts 223°
2026-04-21 13:09 43.05313 -41.02607 38095 ft 514 kts 223°
2026-04-21 13:09 42.99692 -41.08570 38098 ft 516 kts 223°
2026-04-21 13:10 42.94014 -41.14578 38070 ft 517 kts 223°
2026-04-21 13:10 42.88323 -41.20585 38094 ft 518 kts 223°
2026-04-21 13:11 42.82622 -41.26589 38099 ft 519 kts 223°
2026-04-21 13:11 42.76902 -41.32597 38076 ft 519 kts 223°
2026-04-21 13:12 42.71219 -41.38552 38103 ft 519 kts 223°
2026-04-21 13:12 42.65487 -41.44546 38120 ft 520 kts 223°
2026-04-21 13:13 42.59745 -41.50535 38090 ft 521 kts 223°
2026-04-21 13:13 42.53999 -41.56513 38138 ft 521 kts 223°
2026-04-21 13:14 42.48262 -41.62470 38136 ft 524 kts 223°
2026-04-21 13:14 42.42463 -41.68477 38073 ft 524 kts 223°
2026-04-21 13:15 42.36695 -41.74431 38112 ft 520 kts 223°
2026-04-21 13:15 42.30964 -41.80337 38120 ft 517 kts 223°
2026-04-21 13:16 42.25292 -41.86169 38109 ft 514 kts 223°
2026-04-21 13:16 42.19605 -41.92005 38121 ft 513 kts 223°
2026-04-21 13:17 42.13924 -41.97822 38121 ft 513 kts 222°
2026-04-21 13:17 42.08237 -42.03630 38131 ft 514 kts 222°
2026-04-21 13:18 42.02571 -42.09405 38129 ft 515 kts 222°
2026-04-21 13:18 41.96849 -42.15221 38133 ft 516 kts 222°
2026-04-21 13:19 41.91115 -42.21036 38127 ft 517 kts 222°
2026-04-21 13:19 41.85367 -42.26852 38140 ft 518 kts 222°
2026-04-21 13:20 41.79649 -42.32624 38147 ft 519 kts 222°
2026-04-21 13:20 41.73882 -42.38432 38149 ft 519 kts 222°
2026-04-21 13:21 41.68103 -42.44238 38142 ft 519 kts 222°
2026-04-21 13:21 41.62313 -42.50045 38119 ft 521 kts 222°
2026-04-21 13:22 41.56544 -42.55815 38149 ft 522 kts 221°
2026-04-21 13:22 41.50731 -42.61614 38148 ft 521 kts 221°
2026-04-21 13:23 41.44933 -42.67386 38134 ft 519 kts 221°
2026-04-21 13:23 41.39149 -42.73131 38174 ft 518 kts 221°
2026-04-21 13:24 41.33408 -42.78822 38163 ft 518 kts 221°
2026-04-21 13:24 41.27631 -42.84536 38154 ft 517 kts 221°
2026-04-21 13:25 41.21856 -42.90234 38162 ft 517 kts 221°
2026-04-21 13:25 41.16077 -42.95924 38174 ft 517 kts 221°
2026-04-21 13:26 41.10332 -43.01567 38168 ft 518 kts 221°
2026-04-21 13:26 41.04538 -43.07246 38175 ft 518 kts 221°
2026-04-21 13:27 40.98740 -43.12915 38158 ft 519 kts 221°
2026-04-21 13:27 40.92929 -43.18586 38185 ft 519 kts 221°
2026-04-21 13:28 40.87113 -43.24247 38180 ft 520 kts 221°
2026-04-21 13:28 40.81329 -43.29866 38167 ft 520 kts 220°
2026-04-21 13:29 40.75505 -43.35509 38196 ft 519 kts 220°
2026-04-21 13:29 40.69686 -43.41136 38188 ft 519 kts 220°
2026-04-21 13:30 40.63863 -43.46755 38188 ft 518 kts 220°
2026-04-21 13:30 40.58091 -43.52311 38190 ft 517 kts 220°
2026-04-21 13:31 40.52286 -43.57888 38188 ft 517 kts 220°
2026-04-21 13:31 40.46479 -43.63455 38187 ft 517 kts 220°
2026-04-21 13:32 40.40668 -43.69014 38207 ft 517 kts 220°
2026-04-21 13:32 40.34856 -43.74561 38189 ft 517 kts 220°
2026-04-21 13:33 40.29083 -43.80058 38196 ft 516 kts 220°
2026-04-21 13:33 40.23274 -43.85578 38202 ft 516 kts 220°
2026-04-21 13:34 40.17467 -43.91084 38191 ft 515 kts 220°
2026-04-21 13:34 40.11663 -43.96575 38203 ft 515 kts 220°
2026-04-21 13:35 40.05896 -44.02020 38205 ft 515 kts 220°
2026-04-21 13:35 40.00092 -44.07488 38201 ft 514 kts 220°
2026-04-21 13:36 39.94293 -44.12939 38205 ft 514 kts 220°
2026-04-21 13:36 39.88495 -44.18379 38191 ft 513 kts 220°
2026-04-21 13:37 39.82741 -44.23765 38207 ft 513 kts 220°
2026-04-21 13:37 39.76951 -44.29174 38216 ft 512 kts 220°
2026-04-21 13:38 39.71163 -44.34570 38210 ft 512 kts 220°
2026-04-21 13:38 39.65372 -44.39957 38210 ft 512 kts 220°
2026-04-21 13:39 39.59614 -44.45302 38209 ft 512 kts 220°
2026-04-21 13:39 39.53815 -44.50674 38210 ft 512 kts 220°
2026-04-21 13:40 39.48011 -44.56038 38213 ft 513 kts 220°
2026-04-21 13:40 39.42198 -44.61401 38202 ft 513 kts 219°
2026-04-21 13:41 39.36424 -44.66715 38227 ft 513 kts 219°
2026-04-21 13:41 39.30601 -44.72065 38214 ft 514 kts 219°
2026-04-21 13:42 39.24775 -44.77406 38210 ft 513 kts 219°
2026-04-21 13:42 39.18951 -44.82734 38216 ft 513 kts 219°
2026-04-21 13:43 39.13131 -44.88047 38204 ft 513 kts 219°
2026-04-21 13:43 39.07358 -44.93308 38215 ft 511 kts 219°
2026-04-21 13:44 39.01552 -44.98588 38216 ft 510 kts 219°
2026-04-21 13:44 38.95764 -45.03859 38222 ft 509 kts 219°
2026-04-21 13:45 38.90000 -45.09136 38220 ft 509 kts 219°
2026-04-21 13:45 38.84277 -45.14370 38209 ft 508 kts 219°
2026-04-21 13:46 38.78523 -45.19618 38221 ft 507 kts 219°
2026-04-21 13:46 38.72779 -45.24844 38222 ft 506 kts 219°
2026-04-21 13:47 38.67041 -45.30052 38217 ft 505 kts 219°
2026-04-21 13:47 38.61352 -45.35206 38221 ft 504 kts 219°
2026-04-21 13:48 38.55624 -45.40385 38212 ft 504 kts 219°
2026-04-21 13:48 38.49900 -45.45550 38219 ft 503 kts 219°
2026-04-21 13:49 38.44179 -45.50702 38226 ft 503 kts 219°
2026-04-21 13:49 38.38495 -45.55812 38221 ft 503 kts 218°
2026-04-21 13:50 38.32775 -45.60942 38225 ft 503 kts 218°
2026-04-21 13:50 38.27056 -45.66062 38229 ft 502 kts 218°
2026-04-21 13:51 38.21335 -45.71174 38234 ft 502 kts 218°
2026-04-21 13:51 38.15652 -45.76243 38229 ft 503 kts 218°
2026-04-21 13:52 38.09926 -45.81339 38221 ft 503 kts 218°
2026-04-21 13:52 38.04198 -45.86427 38220 ft 503 kts 218°
2026-04-21 13:53 37.98468 -45.91508 38231 ft 503 kts 218°
2026-04-21 13:53 37.92770 -45.96549 38238 ft 503 kts 218°
2026-04-21 13:54 37.87029 -46.01619 38235 ft 503 kts 218°
2026-04-21 13:54 37.81285 -46.06682 38228 ft 503 kts 218°
2026-04-21 13:55 37.75539 -46.11737 38219 ft 503 kts 218°
2026-04-21 13:55 37.69838 -46.16743 38227 ft 502 kts 218°
2026-04-21 13:56 37.64095 -46.21776 38218 ft 502 kts 218°
2026-04-21 13:56 37.58359 -46.26793 38224 ft 502 kts 218°
2026-04-21 13:57 37.52620 -46.31803 38232 ft 502 kts 218°
2026-04-21 13:57 37.46916 -46.36773 38241 ft 502 kts 218°
2026-04-21 13:58 37.41173 -46.41768 38216 ft 502 kts 218°
2026-04-21 13:58 37.35429 -46.46754 38226 ft 501 kts 218°
2026-04-21 13:59 37.29691 -46.51726 38222 ft 501 kts 218°
2026-04-21 13:59 37.23984 -46.56661 38221 ft 501 kts 218°
2026-04-21 14:00 37.18241 -46.61618 38226 ft 501 kts 218°
2026-04-21 14:00 37.12492 -46.66572 38222 ft 501 kts 217°
2026-04-21 14:01 37.06745 -46.71513 38230 ft 501 kts 217°
2026-04-21 14:01 37.01030 -46.76419 38224 ft 501 kts 217°
2026-04-21 14:02 36.95279 -46.81346 38226 ft 501 kts 217°
2026-04-21 14:03 36.86655 -46.88717 38218 ft 501 kts 217°
2026-04-21 14:03 36.80904 -46.93621 38225 ft 500 kts 217°
2026-04-21 14:04 36.75194 -46.98481 38227 ft 500 kts 217°
2026-04-21 14:04 36.69447 -47.03364 38218 ft 500 kts 217°
2026-04-21 14:05 36.63702 -47.08235 38221 ft 499 kts 217°
2026-04-21 14:05 36.57960 -47.13096 38216 ft 499 kts 217°
2026-04-21 14:06 36.52222 -47.17944 38218 ft 499 kts 217°
2026-04-21 14:06 36.46522 -47.22752 38218 ft 499 kts 217°
2026-04-21 14:07 36.40783 -47.27584 38210 ft 498 kts 217°
2026-04-21 14:07 36.35046 -47.32405 38217 ft 498 kts 217°
2026-04-21 14:08 36.29304 -47.37222 38212 ft 498 kts 217°
2026-04-21 14:08 36.23598 -47.42000 38216 ft 498 kts 217°
2026-04-21 14:09 36.17849 -47.46805 38217 ft 498 kts 217°
2026-04-21 14:09 36.12099 -47.51602 38206 ft 499 kts 217°
2026-04-21 14:10 36.06341 -47.56398 38210 ft 499 kts 217°
2026-04-21 14:10 36.00618 -47.61155 38206 ft 499 kts 217°
2026-04-21 14:11 35.94856 -47.65937 38210 ft 499 kts 216°
2026-04-21 14:11 35.89087 -47.70716 38204 ft 499 kts 216°
2026-04-21 14:12 35.83318 -47.75486 38207 ft 500 kts 216°
2026-04-21 14:12 35.77539 -47.80256 38195 ft 500 kts 216°
2026-04-21 14:13 35.71802 -47.84983 38214 ft 500 kts 216°
2026-04-21 14:13 35.66022 -47.89738 38213 ft 500 kts 216°
2026-04-21 14:14 35.60237 -47.94487 38195 ft 500 kts 216°
2026-04-21 14:14 35.54446 -47.99234 38198 ft 500 kts 216°
2026-04-21 14:15 35.48691 -48.03942 38202 ft 500 kts 216°
2026-04-21 14:15 35.42897 -48.08674 38202 ft 500 kts 216°
2026-04-21 14:16 35.37103 -48.13398 38193 ft 500 kts 216°
2026-04-21 14:16 35.31307 -48.18115 38197 ft 500 kts 216°
2026-04-21 14:17 35.25544 -48.22798 38200 ft 501 kts 216°
2026-04-21 14:17 35.19742 -48.27503 38195 ft 500 kts 216°
2026-04-21 14:18 35.13941 -48.32199 38199 ft 500 kts 216°
2026-04-21 14:18 35.08138 -48.36890 38198 ft 500 kts 216°
2026-04-21 14:19 35.02374 -48.41540 38196 ft 500 kts 216°
2026-04-21 14:19 34.96565 -48.46219 38196 ft 500 kts 216°
2026-04-21 14:20 34.90764 -48.50883 38188 ft 499 kts 216°
2026-04-21 14:20 34.84966 -48.55536 38193 ft 499 kts 216°
2026-04-21 14:21 34.79210 -48.60149 38196 ft 499 kts 216°
2026-04-21 14:21 34.73416 -48.64784 38190 ft 499 kts 216°
2026-04-21 14:22 34.67624 -48.69409 38194 ft 498 kts 216°
2026-04-21 14:22 34.61838 -48.74021 38187 ft 497 kts 216°
2026-04-21 14:23 34.56104 -48.78585 38188 ft 496 kts 216°
2026-04-21 14:23 34.50328 -48.83174 38184 ft 496 kts 216°
2026-04-21 14:24 34.44557 -48.87751 38187 ft 496 kts 216°
2026-04-21 14:24 34.38782 -48.92325 38188 ft 496 kts 216°
2026-04-21 14:25 34.33038 -48.96866 38183 ft 497 kts 216°
2026-04-21 14:25 34.27248 -49.01436 38196 ft 497 kts 216°
2026-04-21 14:26 34.21447 -49.06006 38192 ft 498 kts 216°
2026-04-21 14:26 34.15640 -49.10574 38195 ft 498 kts 216°
2026-04-21 14:27 34.09872 -49.15103 38185 ft 498 kts 216°
2026-04-21 14:27 34.04064 -49.19657 38181 ft 498 kts 216°
2026-04-21 14:28 33.98257 -49.24202 38186 ft 498 kts 216°
2026-04-21 14:28 33.92447 -49.28742 38182 ft 498 kts 216°
2026-04-21 14:29 33.86680 -49.33241 38179 ft 497 kts 216°
2026-04-21 14:29 33.80877 -49.37760 38180 ft 497 kts 216°
2026-04-21 14:30 33.75074 -49.42272 38172 ft 497 kts 216°
2026-04-21 14:30 33.69271 -49.46777 38179 ft 496 kts 216°
2026-04-21 14:31 33.63469 -49.51274 38179 ft 497 kts 216°
2026-04-21 14:31 33.57700 -49.55738 38174 ft 497 kts 216°
2026-04-21 14:32 33.51893 -49.60224 38178 ft 497 kts 216°
2026-04-21 14:32 33.46081 -49.64707 38173 ft 497 kts 216°
2026-04-21 14:33 33.40270 -49.69181 38173 ft 497 kts 216°
2026-04-21 14:33 33.34490 -49.73625 38179 ft 497 kts 216°
2026-04-21 14:34 33.28671 -49.78092 38174 ft 497 kts 216°
2026-04-21 14:34 33.22854 -49.82550 38171 ft 497 kts 216°
2026-04-21 14:35 33.17034 -49.87003 38172 ft 497 kts 216°
2026-04-21 14:35 33.11216 -49.91449 38167 ft 497 kts 216°
2026-04-21 14:36 33.05434 -49.95860 38173 ft 496 kts 216°
2026-04-21 14:36 32.99629 -50.00315 38169 ft 495 kts 218°
2026-04-21 14:37 32.94125 -50.05198 38167 ft 493 kts 221°
2026-04-21 14:37 32.88673 -50.10152 38170 ft 493 kts 221°
2026-04-21 14:38 32.83247 -50.15057 38166 ft 493 kts 220°
2026-04-21 14:38 32.77769 -50.19977 38161 ft 494 kts 220°
2026-04-21 14:39 32.72282 -50.24888 38164 ft 494 kts 220°
2026-04-21 14:39 32.66796 -50.29789 38164 ft 494 kts 220°
2026-04-21 14:40 32.61344 -50.34654 38164 ft 494 kts 220°
2026-04-21 14:40 32.55856 -50.39544 38161 ft 494 kts 220°
2026-04-21 14:41 32.50364 -50.44430 38155 ft 494 kts 220°
2026-04-21 14:41 32.45797 -50.48488 38161 ft 493 kts 220°
2026-04-21 14:42 32.40306 -50.53359 38161 ft 493 kts 220°
2026-04-21 14:42 32.33920 -50.59014 38154 ft 493 kts 220°
2026-04-21 14:43 32.29358 -50.63048 38158 ft 493 kts 220°
2026-04-21 14:43 32.23864 -50.67899 38161 ft 493 kts 220°
2026-04-21 14:44 32.17483 -50.73524 38147 ft 492 kts 220°
2026-04-21 14:44 32.11998 -50.78351 38155 ft 492 kts 220°
2026-04-21 14:45 32.07438 -50.82359 38155 ft 491 kts 220°
2026-04-21 14:45 32.01957 -50.87169 38153 ft 491 kts 220°
2026-04-21 14:46 31.96474 -50.91973 38158 ft 491 kts 220°
2026-04-21 14:46 31.90993 -50.96769 38155 ft 491 kts 220°
2026-04-21 14:47 31.85515 -51.01554 38145 ft 490 kts 220°
2026-04-21 14:47 31.80076 -51.06299 38152 ft 490 kts 220°
2026-04-21 14:48 31.74595 -51.11073 38154 ft 490 kts 220°
2026-04-21 14:48 31.69112 -51.15841 38154 ft 491 kts 220°
2026-04-21 14:49 31.63662 -51.20573 38153 ft 491 kts 220°
2026-04-21 14:49 31.58169 -51.25336 38152 ft 491 kts 220°
2026-04-21 14:50 31.52674 -51.30093 38145 ft 491 kts 220°
2026-04-21 14:50 31.47173 -51.34849 38147 ft 491 kts 220°
2026-04-21 14:51 31.41710 -51.39563 38144 ft 491 kts 220°
2026-04-21 14:51 31.36216 -51.44298 38146 ft 490 kts 220°
2026-04-21 14:52 31.30725 -51.49024 38158 ft 490 kts 220°
2026-04-21 14:52 31.25232 -51.53744 38146 ft 490 kts 220°
2026-04-21 14:53 31.19782 -51.58421 38149 ft 489 kts 220°
2026-04-21 14:53 31.14299 -51.63119 38147 ft 489 kts 220°
2026-04-21 14:54 31.08817 -51.67809 38156 ft 488 kts 220°
2026-04-21 14:54 31.03337 -51.72490 38129 ft 488 kts 220°
2026-04-21 14:55 30.97858 -51.77164 38144 ft 488 kts 220°
2026-04-21 14:55 30.92412 -51.81803 38154 ft 488 kts 220°
2026-04-21 14:56 30.86929 -51.86467 38135 ft 488 kts 219°
2026-04-21 14:56 30.81451 -51.91120 38136 ft 487 kts 220°
2026-04-21 14:57 30.75972 -51.95767 38146 ft 487 kts 219°
2026-04-21 14:57 30.70497 -52.00403 38140 ft 487 kts 219°
2026-04-21 14:58 30.65059 -52.05002 38142 ft 487 kts 219°
2026-04-21 14:58 30.59587 -52.09623 38141 ft 486 kts 219°
2026-04-21 14:59 30.54117 -52.14236 38149 ft 485 kts 219°
2026-04-21 14:59 30.48656 -52.18834 38140 ft 485 kts 219°
2026-04-21 15:00 30.43231 -52.23396 38142 ft 485 kts 219°
2026-04-21 15:00 30.37768 -52.27984 38146 ft 485 kts 219°
2026-04-21 15:01 30.32311 -52.32559 38144 ft 484 kts 219°
2026-04-21 15:01 30.26860 -52.37124 38138 ft 484 kts 219°
2026-04-21 15:02 30.21408 -52.41683 38140 ft 483 kts 219°
2026-04-21 15:02 30.16002 -52.46197 38122 ft 483 kts 219°
2026-04-21 15:03 30.10557 -52.50738 38133 ft 483 kts 219°
2026-04-21 15:03 30.05112 -52.55272 38142 ft 482 kts 219°
2026-04-21 15:04 29.99665 -52.59801 38137 ft 483 kts 219°
2026-04-21 15:04 29.94254 -52.64294 38140 ft 482 kts 219°
2026-04-21 15:05 29.88807 -52.68811 38137 ft 482 kts 219°
2026-04-21 15:05 29.80631 -52.75580 38123 ft 482 kts 219°
2026-04-21 15:06 29.75182 -52.80084 38132 ft 482 kts 219°
2026-04-21 15:06 29.69767 -52.84552 38137 ft 482 kts 219°
2026-04-21 15:07 29.64309 -52.89051 38134 ft 482 kts 219°
2026-04-21 15:07 29.58855 -52.93540 38129 ft 483 kts 219°
2026-04-21 15:08 29.53392 -52.98030 38130 ft 483 kts 219°
2026-04-21 15:08 29.47964 -53.02486 38147 ft 483 kts 219°
2026-04-21 15:09 29.42499 -53.06965 38130 ft 483 kts 219°
2026-04-21 15:09 29.37034 -53.11439 38116 ft 483 kts 219°
2026-04-21 15:10 29.31570 -53.15906 38127 ft 482 kts 219°
2026-04-21 15:10 29.26103 -53.20369 38120 ft 482 kts 219°
2026-04-21 15:11 29.20678 -53.24792 38125 ft 482 kts 219°
2026-04-21 15:11 29.15214 -53.29241 38131 ft 482 kts 219°
2026-04-21 15:12 29.09756 -53.33679 38128 ft 481 kts 219°
2026-04-21 15:12 29.04304 -53.38107 38119 ft 480 kts 219°
2026-04-21 15:13 28.98895 -53.42493 38131 ft 480 kts 219°
2026-04-21 15:13 28.93458 -53.46898 38128 ft 479 kts 219°
2026-04-21 15:14 28.88019 -53.51298 38120 ft 479 kts 219°
2026-04-21 15:14 28.82578 -53.55693 38128 ft 479 kts 219°
2026-04-21 15:15 28.77167 -53.60058 38130 ft 480 kts 219°
2026-04-21 15:15 28.71716 -53.64451 38128 ft 480 kts 219°
2026-04-21 15:16 28.66261 -53.68840 38125 ft 480 kts 219°
2026-04-21 15:16 28.60801 -53.73228 38128 ft 481 kts 219°
2026-04-21 15:17 28.55374 -53.77584 38131 ft 480 kts 219°
2026-04-21 15:17 28.49916 -53.81958 38112 ft 480 kts 219°
2026-04-21 15:18 28.44465 -53.86322 38122 ft 479 kts 219°
2026-04-21 15:18 28.39020 -53.90675 38119 ft 478 kts 219°
2026-04-21 15:19 28.33615 -53.94991 38126 ft 478 kts 219°
2026-04-21 15:19 28.28178 -53.99327 38123 ft 477 kts 219°
2026-04-21 15:20 28.22744 -54.03655 38126 ft 477 kts 219°
2026-04-21 15:20 28.17315 -54.07973 38122 ft 477 kts 219°
2026-04-21 15:21 28.11922 -54.12258 38126 ft 476 kts 219°
2026-04-21 15:21 28.06497 -54.16562 38125 ft 476 kts 219°
2026-04-21 15:22 28.01071 -54.20862 38126 ft 476 kts 219°
2026-04-21 15:22 27.95640 -54.25161 38126 ft 476 kts 219°
2026-04-21 15:23 27.90214 -54.29450 38117 ft 476 kts 219°
2026-04-21 15:23 27.84825 -54.33704 38124 ft 476 kts 219°
2026-04-21 15:24 27.79396 -54.37985 38122 ft 476 kts 219°
2026-04-21 15:24 27.73967 -54.42260 38105 ft 476 kts 219°
2026-04-21 15:25 27.68538 -54.46531 38124 ft 476 kts 219°
2026-04-21 15:25 27.63144 -54.50769 38133 ft 476 kts 219°
2026-04-21 15:26 27.57698 -54.55043 38324 ft 477 kts 218°
2026-04-21 15:26 27.54977 -54.57175 38548 ft 476 kts 219°
2026-04-21 15:26 27.52260 -54.59302 38732 ft 475 kts 219°
2026-04-21 15:27 27.49551 -54.61423 38889 ft 475 kts 219°
2026-04-21 15:27 27.46841 -54.63544 39046 ft 474 kts 219°
2026-04-21 15:27 27.44167 -54.65635 39168 ft 474 kts 219°
2026-04-21 15:27 27.41455 -54.67755 39286 ft 475 kts 219°
2026-04-21 15:28 27.38744 -54.69873 39412 ft 475 kts 219°
2026-04-21 15:28 27.36032 -54.71990 39538 ft 474 kts 219°
2026-04-21 15:28 27.33321 -54.74104 39654 ft 474 kts 219°
2026-04-21 15:28 27.30606 -54.76222 39768 ft 475 kts 219°
2026-04-21 15:29 27.27896 -54.78333 39915 ft 474 kts 219°
2026-04-21 15:29 27.25186 -54.80443 40017 ft 474 kts 219°
2026-04-21 15:29 27.19799 -54.84635 40106 ft 475 kts 219°
2026-04-21 15:30 27.14355 -54.88866 40122 ft 477 kts 219°
2026-04-21 15:30 27.08896 -54.93104 40121 ft 478 kts 219°
2026-04-21 15:31 27.03426 -54.97345 40123 ft 478 kts 219°
2026-04-21 15:31 26.97952 -55.01576 40121 ft 478 kts 219°
2026-04-21 15:32 26.92500 -55.05738 40105 ft 477 kts 219°
2026-04-21 15:32 26.87022 -55.09903 40118 ft 475 kts 219°
2026-04-21 15:33 26.81559 -55.14058 40117 ft 474 kts 219°
2026-04-21 15:33 26.76116 -55.18199 40118 ft 473 kts 219°
2026-04-21 15:34 26.70714 -55.22306 40112 ft 472 kts 219°
2026-04-21 15:34 26.65283 -55.26429 40119 ft 472 kts 219°
2026-04-21 15:35 26.59855 -55.30545 40125 ft 471 kts 219°
2026-04-21 15:35 26.54426 -55.34657 40122 ft 471 kts 219°
2026-04-21 15:36 26.49037 -55.38734 40110 ft 471 kts 219°
2026-04-21 15:36 26.43607 -55.42837 40123 ft 471 kts 219°
2026-04-21 15:37 26.38173 -55.46938 40116 ft 472 kts 219°
2026-04-21 15:37 26.32736 -55.51037 40116 ft 472 kts 219°
2026-04-21 15:38 26.27330 -55.55107 40110 ft 472 kts 219°
2026-04-21 15:38 26.21885 -55.59203 40122 ft 472 kts 219°
2026-04-21 15:39 26.16439 -55.63294 40114 ft 472 kts 219°
2026-04-21 15:39 26.10991 -55.67382 40122 ft 473 kts 219°
2026-04-21 15:40 26.05575 -55.71442 40112 ft 473 kts 219°
2026-04-21 15:40 26.00118 -55.75527 40114 ft 473 kts 219°
2026-04-21 15:41 25.94661 -55.79608 40125 ft 473 kts 219°
2026-04-21 15:41 25.89207 -55.83682 40099 ft 472 kts 219°
2026-04-21 15:42 25.83791 -55.87722 40119 ft 472 kts 219°
2026-04-21 15:42 25.78340 -55.91785 40117 ft 472 kts 219°
2026-04-21 15:43 25.72889 -55.95844 40107 ft 472 kts 219°
2026-04-21 15:43 25.67433 -55.99901 40104 ft 472 kts 219°
2026-04-21 15:44 25.62014 -56.03926 40115 ft 472 kts 219°
2026-04-21 15:44 25.56553 -56.07978 40118 ft 473 kts 219°
2026-04-21 15:45 25.51086 -56.12030 40116 ft 473 kts 219°
2026-04-21 15:45 25.45612 -56.16082 40100 ft 474 kts 219°
2026-04-21 15:46 25.40167 -56.20109 40109 ft 474 kts 219°
2026-04-21 15:46 25.34680 -56.24162 40116 ft 475 kts 219°
2026-04-21 15:47 25.29187 -56.28215 40118 ft 475 kts 219°
2026-04-21 15:47 25.23683 -56.32272 40104 ft 476 kts 219°
2026-04-21 15:48 25.18179 -56.36324 40117 ft 475 kts 219°
2026-04-21 15:48 25.12710 -56.40345 40117 ft 475 kts 219°
2026-04-21 15:49 25.07206 -56.44389 40114 ft 475 kts 219°
2026-04-21 15:49 25.01701 -56.48429 40097 ft 475 kts 219°
2026-04-21 15:50 24.96195 -56.52464 40113 ft 475 kts 219°
2026-04-21 15:50 24.90727 -56.56468 40118 ft 475 kts 219°
2026-04-21 15:51 24.85219 -56.60497 40122 ft 475 kts 219°
2026-04-21 15:51 24.79712 -56.64520 40090 ft 475 kts 219°
2026-04-21 15:52 24.74208 -56.68537 40113 ft 475 kts 219°
2026-04-21 15:52 24.68740 -56.72523 40118 ft 475 kts 219°
2026-04-21 15:53 24.63232 -56.76535 40114 ft 475 kts 219°
2026-04-21 15:53 24.57725 -56.80542 40106 ft 475 kts 219°
2026-04-21 15:54 24.52213 -56.84547 40108 ft 475 kts 219°
2026-04-21 15:54 24.46732 -56.88525 40114 ft 476 kts 219°
2026-04-21 15:55 24.41209 -56.92530 40115 ft 476 kts 219°
2026-04-21 15:55 24.35680 -56.96536 40114 ft 476 kts 219°
2026-04-21 15:56 24.30147 -57.00540 40109 ft 477 kts 219°
2026-04-21 15:56 24.24606 -57.04545 40108 ft 477 kts 219°
2026-04-21 15:57 24.19097 -57.08522 40114 ft 478 kts 219°
2026-04-21 15:57 24.13546 -57.12526 40106 ft 478 kts 219°
2026-04-21 15:58 24.07995 -57.16526 40107 ft 478 kts 219°
2026-04-21 15:58 24.02445 -57.20520 40114 ft 477 kts 219°
2026-04-21 15:59 23.96932 -57.24485 40116 ft 477 kts 219°
2026-04-21 15:59 23.91382 -57.28471 40113 ft 477 kts 219°
2026-04-21 16:00 23.85830 -57.32455 40116 ft 477 kts 219°
2026-04-21 16:00 23.80276 -57.36436 40115 ft 477 kts 219°
2026-04-21 16:01 23.74762 -57.40384 40118 ft 477 kts 219°
2026-04-21 16:01 23.69212 -57.44354 40113 ft 477 kts 219°
2026-04-21 16:02 23.63669 -57.48314 40096 ft 476 kts 219°
2026-04-21 16:02 23.58172 -57.52238 40107 ft 475 kts 219°
2026-04-21 16:03 23.52647 -57.56178 40111 ft 474 kts 219°
2026-04-21 16:03 23.47124 -57.60113 40111 ft 474 kts 219°
2026-04-21 16:04 23.41601 -57.64044 40095 ft 474 kts 219°
2026-04-21 16:04 23.36122 -57.67939 40110 ft 474 kts 219°
2026-04-21 16:05 23.30606 -57.71857 40111 ft 473 kts 219°
2026-04-21 16:05 23.25088 -57.75772 40112 ft 473 kts 219°
2026-04-21 16:06 23.19571 -57.79683 40084 ft 473 kts 219°
2026-04-21 16:06 23.14095 -57.83560 40105 ft 473 kts 219°
2026-04-21 16:07 23.08589 -57.87455 40106 ft 472 kts 219°
2026-04-21 16:07 23.03084 -57.91345 40106 ft 472 kts 219°
2026-04-21 16:08 22.94826 -57.97174 40096 ft 472 kts 219°
2026-04-21 16:09 22.89366 -58.01022 40103 ft 471 kts 219°
2026-04-21 16:09 22.83877 -58.04889 40106 ft 470 kts 219°
2026-04-21 16:10 22.78391 -58.08749 40106 ft 470 kts 219°
2026-04-21 16:10 22.72908 -58.12603 40077 ft 470 kts 219°
2026-04-21 16:11 22.67434 -58.16446 40096 ft 469 kts 219°
2026-04-21 16:11 22.62001 -58.20258 40110 ft 468 kts 219°
2026-04-21 16:12 22.57456 -58.23444 40107 ft 468 kts 219°
2026-04-21 16:12 22.51065 -58.27919 40101 ft 468 kts 219°
2026-04-21 16:13 22.45602 -58.31741 40091 ft 467 kts 219°
2026-04-21 16:13 22.40179 -58.35531 40095 ft 467 kts 219°
2026-04-21 16:14 22.34720 -58.39343 40102 ft 467 kts 219°
2026-04-21 16:14 22.29258 -58.43153 40103 ft 468 kts 219°
2026-04-21 16:15 22.23790 -58.46964 40080 ft 468 kts 219°
2026-04-21 16:15 22.18354 -58.50748 40096 ft 468 kts 219°
2026-04-21 16:16 22.12887 -58.54551 40097 ft 468 kts 219°
2026-04-21 16:16 22.07417 -58.58352 40102 ft 468 kts 219°
2026-04-21 16:17 22.01944 -58.62152 40092 ft 468 kts 219°
2026-04-21 16:17 21.96475 -58.65945 40084 ft 467 kts 219°
2026-04-21 16:18 21.91044 -58.69708 40094 ft 467 kts 219°
2026-04-21 16:18 21.85581 -58.73491 40096 ft 467 kts 219°
2026-04-21 16:19 21.80112 -58.77275 40096 ft 467 kts 219°
2026-04-21 16:19 21.74642 -58.81055 40075 ft 467 kts 219°
2026-04-21 16:20 21.69207 -58.84807 40091 ft 468 kts 219°
2026-04-21 16:20 21.63730 -58.88586 40097 ft 468 kts 219°
2026-04-21 16:21 21.58246 -58.92365 40096 ft 469 kts 218°
2026-04-21 16:21 21.52753 -58.96147 40096 ft 469 kts 218°
2026-04-21 16:22 21.47294 -58.99903 40093 ft 469 kts 218°
2026-04-21 16:22 21.41796 -59.03682 40093 ft 469 kts 218°
2026-04-21 16:23 21.36294 -59.07459 40091 ft 469 kts 218°
2026-04-21 16:23 21.30798 -59.11230 40090 ft 469 kts 218°
2026-04-21 16:24 21.25340 -59.14971 40070 ft 469 kts 218°
2026-04-21 16:24 21.19848 -59.18731 40081 ft 468 kts 218°
2026-04-21 16:25 21.14363 -59.22485 40083 ft 468 kts 218°
2026-04-21 16:25 21.08882 -59.26232 40087 ft 468 kts 218°
2026-04-21 16:26 21.03431 -59.29955 40086 ft 468 kts 218°
2026-04-21 16:26 20.97946 -59.33698 40078 ft 467 kts 218°
2026-04-21 16:27 20.92462 -59.37437 40084 ft 467 kts 218°
2026-04-21 16:27 20.86976 -59.41174 40083 ft 468 kts 218°
2026-04-21 16:28 20.81486 -59.44911 40083 ft 468 kts 218°
2026-04-21 16:28 20.76035 -59.48618 40087 ft 468 kts 218°
2026-04-21 16:29 20.71468 -59.51721 40068 ft 468 kts 218°
2026-04-21 16:29 20.65050 -59.56078 40068 ft 468 kts 218°
2026-04-21 16:30 20.59558 -59.59803 40083 ft 468 kts 218°
2026-04-21 16:30 20.54100 -59.63502 40081 ft 468 kts 218°
2026-04-21 16:31 20.48604 -59.67223 40067 ft 468 kts 218°
2026-04-21 16:31 20.43111 -59.70939 40078 ft 467 kts 218°
2026-04-21 16:32 20.37619 -59.74652 40076 ft 468 kts 218°
2026-04-21 16:32 20.32161 -59.78338 40077 ft 468 kts 218°
2026-04-21 16:33 20.26662 -59.82049 40076 ft 468 kts 218°
2026-04-21 16:33 20.21164 -59.85756 40064 ft 468 kts 218°
2026-04-21 16:34 20.15668 -59.89458 40081 ft 467 kts 218°
2026-04-21 16:34 20.10171 -59.93159 40077 ft 468 kts 218°
2026-04-21 16:35 20.04705 -59.96836 40069 ft 468 kts 218°
2026-04-21 16:35 19.99159 -60.00461 40081 ft 471 kts 214°
2026-04-21 16:36 19.93235 -60.03497 40079 ft 473 kts 211°
2026-04-21 16:36 19.87276 -60.06463 40069 ft 473 kts 211°
2026-04-21 16:37 19.81327 -60.09447 40071 ft 473 kts 211°
2026-04-21 16:37 19.75423 -60.12425 40071 ft 473 kts 211°
2026-04-21 16:38 19.69485 -60.15425 40056 ft 473 kts 211°
2026-04-21 16:38 19.63548 -60.18421 40072 ft 472 kts 212°
2026-04-21 16:39 19.57652 -60.21394 40068 ft 472 kts 211°
2026-04-21 16:39 19.51717 -60.24383 40068 ft 472 kts 211°
2026-04-21 16:40 19.45777 -60.27372 40065 ft 472 kts 211°
2026-04-21 16:40 19.39846 -60.30354 40057 ft 472 kts 211°
2026-04-21 16:41 19.34920 -60.32829 40062 ft 471 kts 211°
2026-04-21 16:41 19.28039 -60.36284 40062 ft 471 kts 211°
2026-04-21 16:42 19.22120 -60.39253 40060 ft 471 kts 211°
2026-04-21 16:42 19.16203 -60.42219 40065 ft 470 kts 211°
2026-04-21 16:43 19.10290 -60.45180 40057 ft 470 kts 211°
2026-04-21 16:43 19.04422 -60.48117 40061 ft 470 kts 211°
2026-04-21 16:44 18.98516 -60.51070 40059 ft 469 kts 211°
2026-04-21 16:44 18.92615 -60.54018 40057 ft 469 kts 211°
2026-04-21 16:45 18.86755 -60.56944 40059 ft 469 kts 211°
2026-04-21 16:45 18.80855 -60.59887 40057 ft 469 kts 211°
2026-04-21 16:46 18.74954 -60.62829 40055 ft 469 kts 211°
2026-04-21 16:46 18.69052 -60.65769 40054 ft 469 kts 211°
2026-04-21 16:47 18.63186 -60.68688 40039 ft 469 kts 211°
2026-04-21 16:47 18.57286 -60.71622 40047 ft 469 kts 211°
2026-04-21 16:48 18.51386 -60.74554 40053 ft 469 kts 211°
2026-04-21 16:48 18.45485 -60.77484 40054 ft 468 kts 211°
2026-04-21 16:48 18.42544 -60.78943 39531 ft 469 kts 211°
2026-04-21 16:49 18.39605 -60.80401 38907 ft 465 kts 212°
2026-04-21 16:49 18.36716 -60.81832 38084 ft 465 kts 212°
2026-04-21 16:49 18.33795 -60.83280 37252 ft 463 kts 212°
2026-04-21 16:49 18.30888 -60.84721 36460 ft 462 kts 212°
2026-04-21 16:50 18.27983 -60.86161 35634 ft 462 kts 212°
2026-04-21 16:50 18.25067 -60.87607 34644 ft 466 kts 212°
2026-04-21 16:50 18.22115 -60.89072 33549 ft 472 kts 211°
2026-04-21 16:50 18.19134 -60.90550 32426 ft 476 kts 211°
2026-04-21 16:51 18.16126 -60.92037 31335 ft 480 kts 211°
2026-04-21 16:51 18.13109 -60.93527 30559 ft 478 kts 210°
2026-04-21 16:51 18.10144 -60.94989 29741 ft 476 kts 210°
2026-04-21 16:51 18.07151 -60.96467 28887 ft 474 kts 210°
2026-04-21 16:52 18.04181 -60.97933 28116 ft 470 kts 210°
2026-04-21 16:52 18.01305 -60.99511 27389 ft 462 kts 215°
2026-04-21 16:52 17.99518 -61.00699 26913 ft 458 kts 218°
2026-04-21 16:52 17.96178 -61.03405 25935 ft 449 kts 225°
2026-04-21 16:53 17.93856 -61.05580 25225 ft 446 kts 225°
2026-04-21 16:53 17.91545 -61.07737 24497 ft 443 kts 224°
2026-04-21 16:53 17.89239 -61.09880 23798 ft 441 kts 224°
2026-04-21 16:53 17.86939 -61.12007 23007 ft 440 kts 224°
2026-04-21 16:54 17.84683 -61.14087 22278 ft 436 kts 224°
2026-04-21 16:54 17.82409 -61.16179 21580 ft 432 kts 223°
2026-04-21 16:54 17.80156 -61.18250 20900 ft 429 kts 223°
2026-04-21 16:54 17.77919 -61.20304 20243 ft 426 kts 223°
2026-04-21 16:55 17.75691 -61.22349 19599 ft 424 kts 223°
2026-04-21 16:55 17.73475 -61.24384 18945 ft 423 kts 223°
2026-04-21 16:55 17.71259 -61.26417 18292 ft 423 kts 223°
2026-04-21 16:55 17.69048 -61.28445 17574 ft 422 kts 223°
2026-04-21 16:56 17.66878 -61.30435 16928 ft 419 kts 223°
2026-04-21 16:56 17.64688 -61.32442 16288 ft 417 kts 223°
2026-04-21 16:56 17.62523 -61.34425 15652 ft 404 kts 223°
2026-04-21 16:56 17.60456 -61.36316 15059 ft 385 kts 223°
2026-04-21 16:57 17.58477 -61.38126 14494 ft 370 kts 223°
2026-04-21 16:57 17.56567 -61.39874 13959 ft 363 kts 223°
2026-04-21 16:57 17.54633 -61.41648 13242 ft 377 kts 223°
2026-04-21 16:57 17.52635 -61.43481 12497 ft 383 kts 222°
2026-04-21 16:58 17.50632 -61.45314 11907 ft 381 kts 222°
2026-04-21 16:58 17.48667 -61.47112 11368 ft 379 kts 222°
2026-04-21 16:58 17.46689 -61.48920 10846 ft 376 kts 221°
2026-04-21 16:58 17.44722 -61.50717 10300 ft 374 kts 221°
2026-04-21 16:59 17.42768 -61.52503 9739 ft 372 kts 221°
2026-04-21 16:59 17.40821 -61.54281 9171 ft 370 kts 221°
2026-04-21 16:59 17.38892 -61.56041 8632 ft 366 kts 221°
2026-04-21 16:59 17.36978 -61.57788 8100 ft 363 kts 221°
2026-04-21 17:00 17.35110 -61.59493 7584 ft 360 kts 221°
2026-04-21 17:00 17.33232 -61.61207 7088 ft 357 kts 220°
2026-04-21 17:00 17.31979 -61.62357 6743 ft 350 kts 222°
2026-04-21 17:00 17.29946 -61.64946 5974 ft 349 kts 239°
2026-04-21 17:01 17.28889 -61.67207 5474 ft 345 kts 247°
2026-04-21 17:01 17.28012 -61.69516 5173 ft 336 kts 248°
2026-04-21 17:01 17.27170 -61.71743 5040 ft 322 kts 248°
2026-04-21 17:01 17.26359 -61.73882 4909 ft 310 kts 248°
2026-04-21 17:02 17.25573 -61.75944 4766 ft 300 kts 248°
2026-04-21 17:02 17.24821 -61.77912 4625 ft 291 kts 248°
2026-04-21 17:02 17.24080 -61.79844 4494 ft 282 kts 248°
2026-04-21 17:02 17.23360 -61.81719 4339 ft 274 kts 248°
2026-04-21 17:03 17.22660 -61.83557 4096 ft 271 kts 248°
2026-04-21 17:03 17.21949 -61.85365 3856 ft 264 kts 243°
2026-04-21 17:03 17.21052 -61.87006 3645 ft 259 kts 237°
2026-04-21 17:03 17.20038 -61.88556 3358 ft 258 kts 233°
2026-04-21 17:04 17.18924 -61.89993 3194 ft 250 kts 225°
2026-04-21 17:04 17.17658 -61.91199 3010 ft 243 kts 214°
2026-04-21 17:04 17.16218 -61.92064 2844 ft 234 kts 201°
2026-04-21 17:04 17.14723 -61.92618 2622 ft 230 kts 192°
2026-04-21 17:05 17.13174 -61.92906 2446 ft 219 kts 181°
2026-04-21 17:05 17.11721 -61.92798 2380 ft 202 kts 161°
2026-04-21 17:05 17.10510 -61.92215 2299 ft 185 kts 142°
2026-04-21 17:05 17.09598 -61.91328 2069 ft 174 kts 126°
2026-04-21 17:06 17.09070 -61.90222 1942 ft 169 kts 102°
2026-04-21 17:06 17.08976 -61.89058 1816 ft 154 kts 83°
2026-04-21 17:06 17.09282 -61.88033 1738 ft 146 kts 64°
2026-04-21 17:06 17.09721 -61.87076 1626 ft 150 kts 64°
2026-04-21 17:07 17.10026 -61.86415 1560 ft 149 kts 66°
2026-04-21 17:07 17.10504 -61.85086 1270 ft 139 kts 71°
2026-04-21 17:07 17.10844 -61.84198 1124 ft 127 kts 65°
2026-04-21 17:07 17.11253 -61.83365 961 ft 131 kts 61°
2026-04-21 17:08 17.11737 -61.82560 815 ft 130 kts 59°
2026-04-21 17:08 17.12216 -61.81759 599 ft 131 kts 60°
2026-04-21 17:08 17.12687 -61.80934 326 ft 133 kts 60°
2026-04-21 17:08 17.13165 -61.80130 101 ft 131 kts 60°
2026-04-21 17:09 17.13850 -61.78966 61 ft 41 kts 59°
2026-04-21 17:09 17.13998 -61.78716 62 ft 29 kts 57°
2026-04-21 17:09 17.14076 -61.78650 65 ft 13 kts 343°
2026-04-21 17:10 17.14103 -61.78736 69 ft 13 kts 274°
2026-04-21 17:10 17.14109 -61.78832 63 ft 14 kts 269°
2026-04-21 17:10 17.14067 -61.78926 58 ft 14 kts 239°
2026-04-21 17:10 17.14018 -61.79010 63 ft 13 kts 237°
2026-04-21 17:11 17.14015 -61.79064 61 ft 8 kts 314°
2026-04-21 17:11 17.14051 -61.79088 64 ft 3 kts 329°
2026-04-21 17:11 17.14061 -61.79094 68 ft 0 kts 329°